QPF
0.00 0.00 0.00 0.00 0.00 0.00 0.00 0.00 0.00 0.00 0.00 0.00 0.00 0.00 0.00 0.00 0.00 0.00 0.00 0.00 0.00 0.00 0.00 0.00 0.00 0.00 0.00 0.00 0.00 0.00 0.00 0.00 0.00 0.00 0.00 0.00 0.00 0.00 0.00 0.00 0.00 0.00 0.00 0.00 0.00
0.00 0.00 0.00 0.00 0.00 0.00 0.00 0.00 0.00 0.00 0.00 0.00 0.00 0.00 0.00 0.00 0.00 0.00 0.00 0.00 0.00 0.00 0.00 0.00 0.00 0.00 0.00 0.00 0.00 0.00 0.00 0.01 0.01 0.00 0.01 0.01 0.00 0.00 0.00 0.00 0.00 0.00 0.00 0.00 0.00
0.00 0.00 0.00 0.00 0.00 0.00 0.00 0.00 0.00 0.00 0.00 0.00 0.00 0.00 0.00 0.00 0.00 0.00 0.00 0.00 0.00 0.00 0.00 0.00 0.00 0.00 0.00 0.00 0.00 0.00 0.00 0.00 0.00 0.00 0.00 0.00 0.00 0.00 0.01 0.00 0.00 0.00 0.00 0.00 0.00
0.00 0.00 0.00 0.00 0.00 0.00 0.00 0.00 0.00 0.00 0.00 0.00 0.00 0.00 0.00 0.00 0.00 0.00 0.00 0.00 0.00 0.00 0.00 0.00 0.00 0.00 0.00 0.00 0.00 0.00 0.00 0.00 0.00 0.00 0.00 0.00 0.01 0.00 0.01 0.01 0.00 0.00 0.00 0.00 0.00
0.00 0.00 0.00 0.00 0.00 0.00 0.00 0.00 0.00 0.00 0.00 0.00 0.00 0.00 0.00 0.00 0.00 0.00 0.00 0.00 0.00 0.00 0.00 0.00 0.00 0.00 0.00 0.00 0.00 0.00 0.00 0.00 0.00 0.00 0.00 0.00 0.00 0.01 0.00 0.00 0.00 0.00 0.00 0.00 0.00
0.00 0.00 0.00 0.00 0.00 0.00 0.00 0.00 0.00 0.00 0.00 0.00 0.00 0.00 0.00 0.00 0.00 0.00 0.00 0.00 0.00 0.00 0.00 0.00 0.00 0.00 0.00 0.00 0.00 0.00 0.00 0.00 0.00 0.00 0.00 0.00 0.00 0.00 0.00 0.00 0.00 0.00 0.00 0.00 0.00
0.00 0.00 0.00 0.00 0.00 0.00 0.00 0.00 0.00 0.00 0.00 0.00 0.00 0.00 0.00 0.00 0.00 0.00 0.00 0.00 0.00 0.00 0.00 0.00 0.00 0.00 0.00 0.00 0.00 0.00 0.00 0.00 0.00 0.00 0.00 0.00 0.00 0.00 0.00 0.00 0.00 0.00 0.00 0.00 0.00
0.00 0.00 0.00 0.00 0.00 0.00 0.00 0.00 0.00 0.00 0.00 0.00 0.00 0.00 0.00 0.00 0.00 0.00 0.00 0.00 0.00 0.00 0.00 0.00 0.00 0.00 0.00 0.00 0.00 0.00 0.00 0.00 0.00 0.00 0.00 0.00 0.00 0.00 0.00 0.00 0.00 0.00 0.00 0.00 0.00
0.00 0.00 0.00 0.00 0.00 0.00 0.00 0.00 0.00 0.00 0.00 0.00 0.00 0.00 0.00 0.00 0.00 0.00 0.00 0.00 0.00 0.00 0.00 0.00 0.00 0.00 0.00 0.00 0.00 0.00 0.00 0.00 0.00 0.00 0.00 0.00 0.00 0.00 0.00 0.00 0.00 0.00 0.00 0.00 0.00
0.00 0.00 0.00 0.00 0.00 0.00 0.00 0.00 0.00 0.00 0.00 0.00 0.00 0.00 0.00 0.00 0.00 0.00 0.00 0.00 0.00 0.00 0.00 0.00 0.00 0.00 0.00 0.00 0.00 0.00 0.00 0.00 0.00 0.00 0.00 0.00 0.00 0.00 0.00 0.00 0.00 0.00 0.00 0.00 0.00
0.00 0.00 0.00 0.00 0.00 0.00 0.00 0.00 0.00 0.00 0.00 0.00 0.00 0.00 0.00 0.00 0.00 0.00 0.00 0.00 0.00 0.00 0.00 0.00 0.00 0.00 0.00 0.00 0.00 0.00 0.00 0.00 0.00 0.00 0.00 0.00 0.00 0.00 0.00 0.00 0.00 0.00 0.00 0.00 0.00
0.00 0.00 0.00 0.00 0.00 0.00 0.00 0.00 0.00 0.00 0.00 0.00 0.00 0.00 0.00 0.00 0.00 0.00 0.00 0.00 0.00 0.00 0.00 0.00 0.00 0.00 0.00 0.00 0.00 0.00 0.00 0.00 0.00 0.00 0.00 0.00 0.00 0.00 0.00 0.00 0.00 0.00 0.00 0.00 0.00
0.00 0.00 0.00 0.00 0.00 0.00 0.00 0.00 0.00 0.00 0.00 0.00 0.00 0.00 0.00 0.00 0.00 0.00 0.00 0.00 0.00 0.00 0.00 0.00 0.00 0.00 0.00 0.00 0.00 0.00 0.00 0.00 0.00 0.00 0.00 0.00 0.00 0.00 0.00 0.00 0.00 0.00 0.00 0.00 0.00
0.00 0.00 0.00 0.00 0.00 0.00 0.00 0.00 0.00 0.00 0.00 0.00 0.00 0.00 0.00 0.00 0.00 0.00 0.00 0.00 0.00 0.00 0.00 0.00 0.00 0.00 0.00 0.00 0.00 0.00 0.00 0.00 0.00 0.00 0.00 0.00 0.00 0.00 0.00 0.00 0.00 0.00 0.00 0.00 0.00
0.00 0.00 0.00 0.00 0.00 0.00 0.00 0.00 0.00 0.00 0.00 0.00 0.00 0.00 0.00 0.00 0.00 0.00 0.00 0.00 0.00 0.00 0.00 0.00 0.00 0.00 0.00 0.00 0.00 0.00 0.00 0.00 0.00 0.00 0.00 0.00 0.00 0.00 0.00 0.00 0.00 0.00 0.00 0.00 0.00
0.00 0.00 0.00 0.00 0.00 0.00 0.00 0.00 0.00 0.00 0.00 0.00 0.00 0.00 0.00 0.00 0.00 0.00 0.00 0.00 0.00 0.00 0.00 0.00 0.00 0.00 0.00 0.00 0.00 0.00 0.00 0.00 0.00 0.00 0.00 0.00 0.00 0.00 0.00 0.00 0.00 0.00 0.00 0.00 0.00
0.00 0.00 0.00 0.00 0.00 0.00 0.00 0.00 0.00 0.00 0.00 0.00 0.00 0.00 0.00 0.00 0.00 0.00 0.00 0.00 0.00 0.00 0.00 0.00 0.00 0.00 0.00 0.00 0.00 0.00 0.00 0.00 0.00 0.00 0.00 0.00 0.00 0.00 0.00 0.00 0.00 0.00 0.00 0.00 0.00
0.00 0.00 0.00 0.00 0.00 0.00 0.00 0.00 0.00 0.00 0.00 0.00 0.00 0.00 0.00 0.00 0.00 0.00 0.00 0.00 0.00 0.00 0.00 0.00 0.00 0.00 0.00 0.00 0.00 0.00 0.00 0.00 0.00 0.00 0.00 0.00 0.00 0.00 0.00 0.00 0.00 0.00 0.00 0.00 0.00
0.00 0.00 0.00 0.00 0.00 0.00 0.00 0.00 0.00 0.00 0.00 0.00 0.00 0.00 0.00 0.00 0.00 0.00 0.00 0.00 0.00 0.00 0.00 0.00 0.00 0.00 0.00 0.00 0.00 0.00 0.00 0.00 0.00 0.00 0.00 0.00 0.00 0.00 0.00 0.00 0.00 0.00 0.00 0.00 0.00
0.00 0.00 0.00 0.00 0.00 0.00 0.00 0.00 0.00 0.00 0.00 0.00 0.00 0.00 0.00 0.00 0.00 0.00 0.00 0.00 0.00 0.00 0.00 0.00 0.00 0.00 0.00 0.00 0.00 0.00 0.00 0.00 0.00 0.00 0.00 0.00 0.00 0.00 0.00 0.00 0.00 0.00 0.00 0.00 0.00
0.00 0.00 0.00 0.00 0.00 0.00 0.00 0.00 0.00 0.00 0.00 0.00 0.00 0.00 0.00 0.00 0.00 0.00 0.00 0.00 0.00 0.00 0.00 0.00 0.00 0.00 0.00 0.00 0.00 0.00 0.00 0.00 0.00 0.00 0.00 0.00 0.00 0.00 0.00 0.00 0.00 0.00 0.00 0.00 0.00
0.00 0.00 0.00 0.00 0.00 0.00 0.00 0.00 0.00 0.00 0.00 0.00 0.00 0.00 0.00 0.00 0.00 0.00 0.00 0.00 0.00 0.00 0.00 0.00 0.00 0.00 0.00 0.00 0.00 0.00 0.00 0.00 0.00 0.00 0.00 0.00 0.00 0.00 0.00 0.00 0.00 0.00 0.00 0.00 0.00
0.00 0.00 0.00 0.00 0.00 0.00 0.00 0.00 0.00 0.00 0.00 0.00 0.00 0.00 0.00 0.00 0.00 0.00 0.00 0.00 0.00 0.00 0.00 0.00 0.00 0.00 0.00 0.00 0.00 0.00 0.00 0.00 0.00 0.00 0.00 0.00 0.00 0.00 0.00 0.00 0.00 0.00 0.00 0.00 0.00
0.00 0.00 0.00 0.00 0.00 0.00 0.00 0.00 0.00 0.00 0.00 0.00 0.00 0.00 0.00 0.00 0.00 0.00 0.00 0.00 0.00 0.00 0.00 0.00 0.00 0.00 0.00 0.00 0.00 0.00 0.00 0.00 0.00 0.00 0.00 0.00 0.00 0.00 0.00 0.00 0.00 0.00 0.00 0.00 0.00
0.00 0.00 0.00 0.00 0.00 0.00 0.00 0.00 0.00 0.00 0.00 0.00 0.00 0.00 0.00 0.00 0.00 0.00 0.00 0.00 0.00 0.00 0.00 0.00 0.00 0.00 0.00 0.00 0.00 0.00 0.00 0.00 0.00 0.00 0.00 0.00 0.00 0.00 0.00 0.00 0.00 0.00 0.00 0.00 0.00
0.00 0.00 0.00 0.00 0.00 0.00 0.00 0.00 0.00 0.00 0.00 0.00 0.00 0.00 0.00 0.00 0.00 0.00 0.00 0.00 0.00 0.00 0.00 0.00 0.00 0.00 0.00 0.00 0.00 0.00 0.00 0.00 0.00 0.00 0.00 0.00 0.00 0.00 0.00 0.00 0.00 0.00 0.00 0.00 0.00
0.00 0.00 0.00 0.00 0.00 0.00 0.00 0.00 0.00 0.00 0.00 0.00 0.00 0.00 0.00 0.00 0.00 0.00 0.00 0.00 0.00 0.00 0.00 0.00 0.00 0.00 0.00 0.00 0.00 0.00 0.00 0.00 0.00 0.00 0.00 0.00 0.00 0.00 0.00 0.00 0.00 0.00 0.00 0.00 0.00
MSLP
1018.33 1018.03 1017.73 1017.44 1017.08 1016.81 1016.57 1016.32 1016.10 1015.85 1015.61 1015.31 1014.98 1014.65 1014.26 1013.81 1013.05 1012.84 1011.75 1009.28 1009.23 1009.42 1009.56 1009.71 1009.93 1009.93 1010.02 1010.28 1010.34 1010.93 1011.84 1012.07 1011.44 1010.93 1009.73 1008.71 1008.41 1008.17 1008.41 1008.91 1009.45 1009.84 1010.28 1010.48 1011.72
1018.31 1018.00 1017.70 1017.41 1017.06 1016.75 1016.50 1016.30 1016.03 1015.79 1015.52 1015.22 1014.85 1014.51 1014.20 1013.84 1013.30 1011.72 1008.82 1008.47 1008.61 1009.29 1009.64 1009.68 1009.82 1009.85 1010.13 1010.09 1010.20 1010.70 1011.07 1010.28 1009.57 1009.28 1008.75 1008.33 1008.20 1008.14 1008.64 1009.41 1010.36 1010.41 1010.77 1011.18 1011.94
1018.39 1018.08 1017.74 1017.39 1017.06 1016.73 1016.40 1016.16 1015.96 1015.72 1015.47 1015.18 1014.80 1014.38 1014.05 1013.78 1012.85 1009.28 1007.63 1007.86 1008.28 1009.04 1009.27 1009.41 1009.62 1009.71 1009.88 1009.76 1009.64 1009.67 1009.42 1008.67 1008.02 1008.08 1007.87 1007.81 1007.85 1008.07 1008.52 1009.36 1009.98 1010.23 1011.06 1011.63 1012.19
1018.38 1018.04 1017.72 1017.40 1017.01 1016.64 1016.30 1016.01 1015.84 1015.63 1015.38 1015.07 1014.69 1014.26 1013.91 1013.63 1011.31 1007.84 1007.53 1007.65 1008.15 1008.92 1009.36 1009.37 1009.50 1009.61 1009.67 1009.64 1008.80 1008.65 1007.93 1007.83 1007.06 1007.28 1007.73 1007.78 1007.81 1007.95 1008.31 1008.31 1008.90 1009.64 1010.17 1011.18 1012.05
1018.29 1017.93 1017.55 1017.21 1016.90 1016.51 1016.18 1015.91 1015.70 1015.50 1015.24 1014.94 1014.60 1014.20 1013.77 1012.86 1009.96 1007.70 1007.47 1007.58 1008.41 1008.97 1009.24 1009.38 1009.45 1009.48 1009.55 1009.10 1008.45 1007.98 1007.38 1006.95 1006.55 1006.95 1006.98 1007.26 1007.47 1007.72 1007.76 1008.27 1009.05 1009.87 1010.47 1010.95 1011.64
1018.11 1017.72 1017.38 1017.03 1016.70 1016.35 1016.01 1015.76 1015.57 1015.30 1015.05 1014.80 1014.55 1014.29 1013.79 1011.68 1007.99 1007.76 1007.91 1008.29 1008.36 1008.75 1009.09 1009.39 1009.30 1009.31 1009.35 1009.18 1008.91 1007.95 1007.32 1006.93 1006.82 1006.59 1006.57 1006.94 1007.25 1007.46 1007.88 1008.40 1009.15 1009.70 1010.26 1010.74 1011.20
1017.96 1017.50 1017.12 1016.77 1016.41 1016.07 1015.76 1015.52 1015.31 1015.11 1014.84 1014.65 1014.54 1014.28 1013.35 1009.86 1008.09 1008.10 1008.15 1008.38 1008.35 1008.47 1008.93 1009.19 1009.07 1009.33 1009.38 1009.28 1008.47 1008.04 1007.49 1007.16 1007.34 1006.77 1006.58 1006.66 1007.21 1007.25 1007.29 1008.17 1008.96 1009.58 1010.10 1010.60 1010.95
1017.79 1017.32 1016.86 1016.47 1016.10 1015.72 1015.39 1015.11 1014.84 1014.65 1014.51 1014.43 1014.33 1014.15 1011.96 1008.66 1008.25 1008.19 1008.21 1008.21 1008.24 1008.57 1008.84 1008.87 1009.00 1009.38 1009.58 1009.07 1008.68 1008.33 1008.05 1008.17 1007.28 1007.11 1006.63 1007.00 1007.10 1007.28 1007.56 1008.18 1008.99 1009.56 1010.10 1010.50 1010.74
1017.64 1017.16 1016.64 1016.17 1015.85 1015.48 1015.02 1014.58 1014.23 1014.07 1014.22 1014.09 1014.24 1013.66 1010.70 1008.28 1008.19 1007.65 1007.91 1008.19 1008.31 1008.62 1008.76 1008.78 1008.96 1009.60 1009.74 1009.98 1009.86 1009.63 1009.33 1008.77 1007.81 1007.05 1006.89 1007.09 1007.03 1007.05 1007.43 1008.10 1008.74 1009.24 1009.74 1010.05 1010.57
1017.37 1016.89 1016.44 1015.93 1015.52 1015.19 1014.63 1014.09 1013.91 1013.95 1014.10 1013.95 1013.41 1013.17 1009.71 1007.76 1007.19 1007.22 1007.58 1008.00 1008.25 1008.57 1008.81 1009.01 1009.73 1010.20 1010.85 1011.00 1011.08 1010.64 1010.22 1009.27 1008.64 1007.62 1007.61 1007.51 1007.06 1007.17 1007.37 1007.69 1008.08 1008.61 1009.22 1009.58 1009.85
1017.01 1016.49 1016.09 1015.66 1015.29 1015.08 1014.49 1013.85 1014.17 1013.81 1013.21 1011.49 1010.73 1009.97 1008.49 1007.14 1006.54 1006.98 1007.27 1008.09 1008.42 1008.88 1009.40 1009.75 1010.47 1010.68 1010.70 1011.03 1010.95 1010.78 1010.47 1009.87 1008.03 1007.44 1007.66 1007.22 1007.05 1006.65 1007.25 1007.64 1008.02 1008.14 1008.36 1008.90 1008.95
1016.63 1016.07 1015.62 1015.25 1015.02 1014.96 1014.99 1013.78 1011.69 1011.33 1011.05 1009.63 1009.44 1008.93 1008.01 1007.40 1007.38 1006.84 1007.02 1008.13 1008.74 1009.36 1009.79 1010.41 1010.25 1009.82 1010.26 1010.46 1010.62 1010.50 1010.36 1009.18 1008.03 1006.78 1007.08 1006.68 1006.96 1006.29 1006.55 1006.33 1006.41 1006.95 1007.59 1007.83 1008.42
1016.18 1015.62 1015.17 1014.78 1014.56 1014.71 1014.12 1012.22 1010.45 1010.58 1010.60 1008.64 1008.34 1007.98 1007.38 1007.31 1007.10 1006.54 1006.87 1007.64 1008.48 1009.45 1009.95 1010.35 1009.46 1009.23 1009.89 1009.82 1010.19 1009.80 1009.82 1008.66 1008.41 1007.16 1006.76 1006.91 1007.36 1006.72 1005.88 1005.68 1005.90 1005.98 1006.36 1007.07 1007.41
1015.78 1015.21 1014.78 1014.34 1014.56 1013.93 1012.88 1010.92 1010.33 1010.51 1010.43 1008.14 1007.41 1006.20 1006.42 1006.48 1006.41 1005.68 1006.09 1007.12 1008.14 1008.86 1009.83 1010.04 1008.81 1009.04 1009.34 1009.39 1009.61 1009.33 1007.73 1008.21 1008.08 1007.74 1007.51 1007.34 1007.58 1006.81 1005.71 1005.21 1005.14 1005.30 1005.82 1006.17 1006.64
1015.40 1014.81 1014.52 1014.47 1014.29 1013.24 1011.00 1010.66 1010.20 1010.20 1009.43 1006.87 1006.19 1005.21 1005.60 1006.03 1005.88 1005.82 1005.63 1006.53 1007.55 1008.37 1009.42 1009.00 1008.53 1008.53 1008.79 1008.10 1008.75 1008.12 1007.24 1008.07 1008.05 1008.23 1008.50 1008.07 1008.10 1006.25 1005.63 1005.01 1004.51 1004.41 1004.69 1005.20 1005.39
1014.75 1014.37 1014.16 1014.25 1014.21 1011.40 1010.36 1010.40 1010.27 1010.33 1008.06 1006.14 1005.50 1005.52 1005.89 1005.80 1005.70 1005.73 1006.03 1006.37 1007.08 1008.23 1008.72 1008.57 1007.86 1007.72 1007.31 1007.05 1007.55 1007.26 1007.85 1008.47 1009.16 1009.41 1009.54 1008.91 1008.49 1006.15 1005.39 1003.93 1003.65 1003.44 1003.76 1004.12 1004.72
1013.80 1013.45 1013.69 1012.77 1011.83 1010.52 1010.27 1010.52 1010.86 1009.69 1007.26 1006.32 1005.64 1005.43 1005.69 1006.03 1006.19 1006.16 1006.62 1006.99 1007.58 1008.61 1009.00 1008.28 1007.29 1006.75 1006.48 1006.81 1006.89 1007.61 1008.69 1009.53 1010.38 1010.95 1010.53 1009.14 1008.52 1005.87 1003.72 1002.96 1002.49 1002.91 1003.06 1003.32 1003.73
1012.96 1012.08 1012.22 1011.73 1010.89 1010.47 1010.45 1011.17 1010.80 1008.84 1007.43 1006.17 1005.67 1005.74 1006.02 1006.16 1006.33 1006.47 1006.99 1007.61 1007.77 1008.25 1008.91 1008.39 1006.93 1005.82 1005.42 1005.64 1006.05 1007.05 1008.10 1009.52 1010.79 1011.82 1011.00 1009.73 1007.98 1004.55 1002.63 1001.81 1001.60 1001.81 1001.87 1002.45 1003.29
1012.42 1012.10 1012.26 1010.45 1010.70 1010.98 1011.33 1011.75 1010.33 1008.94 1007.70 1006.82 1005.94 1005.94 1006.23 1006.01 1006.13 1006.48 1006.99 1007.18 1007.14 1007.57 1008.28 1007.86 1006.71 1005.29 1004.57 1004.57 1005.24 1006.81 1007.80 1008.37 1010.22 1011.61 1011.27 1009.50 1007.42 1004.58 1002.37 1001.55 1001.23 1001.44 1002.16 1002.34 1002.69
1013.25 1012.45 1010.97 1009.80 1010.17 1010.82 1011.69 1011.79 1010.37 1008.85 1007.70 1007.02 1006.62 1006.11 1006.39 1006.25 1006.37 1006.67 1006.62 1005.83 1006.19 1006.11 1006.73 1007.33 1006.99 1005.19 1004.27 1004.29 1004.77 1005.32 1006.59 1008.47 1010.19 1011.35 1011.45 1009.61 1007.73 1005.29 1003.46 1002.17 1001.51 1001.67 1001.95 1002.17 1002.37
1013.18 1012.31 1010.55 1009.94 1010.01 1011.45 1012.37 1011.67 1010.04 1008.51 1007.92 1007.32 1006.80 1006.80 1006.40 1006.50 1006.56 1006.61 1006.36 1005.72 1005.56 1005.77 1006.38 1006.96 1007.24 1005.25 1004.84 1004.43 1004.41 1005.56 1006.45 1008.08 1009.51 1010.42 1010.71 1009.81 1007.54 1004.56 1003.51 1002.85 1001.83 1001.64 1001.44 1001.79 1001.97
1014.34 1013.10 1010.98 1010.73 1011.44 1012.64 1012.56 1011.38 1009.90 1008.47 1007.49 1007.17 1006.99 1006.69 1006.68 1006.65 1006.75 1006.70 1006.35 1005.99 1005.81 1005.69 1006.31 1006.42 1006.81 1006.33 1005.29 1004.34 1004.31 1004.22 1005.28 1006.90 1009.06 1010.06 1010.03 1009.11 1006.36 1003.74 1003.15 1002.43 1001.66 1001.25 1001.16 1001.20 1001.55
1015.86 1014.33 1011.32 1010.93 1012.46 1013.26 1012.48 1011.36 1010.00 1008.81 1008.03 1007.52 1007.39 1007.29 1007.13 1007.27 1007.31 1006.95 1006.64 1006.24 1006.21 1006.21 1006.61 1006.68 1006.90 1006.95 1005.80 1004.99 1004.49 1004.52 1005.11 1006.17 1007.42 1008.51 1009.20 1008.68 1005.93 1003.86 1003.04 1002.26 1001.39 1001.00 1000.99 1001.33 1001.68
1016.17 1015.32 1013.71 1013.09 1013.65 1013.74 1013.41 1012.20 1010.71 1008.96 1008.70 1008.38 1008.57 1007.92 1007.93 1008.07 1007.99 1007.94 1007.65 1007.05 1007.09 1007.25 1006.78 1006.56 1007.45 1006.96 1006.11 1004.84 1004.50 1004.53 1004.51 1005.07 1006.37 1007.73 1008.02 1007.17 1005.77 1004.27 1003.64 1002.76 1001.91 1001.40 1001.22 1001.77 1002.18
1016.69 1017.19 1016.64 1015.69 1014.99 1014.81 1014.03 1013.04 1011.80 1010.58 1009.59 1009.25 1009.33 1009.41 1009.23 1009.29 1009.22 1009.05 1008.81 1008.60 1007.72 1007.82 1007.51 1007.69 1008.08 1007.54 1006.34 1005.14 1004.47 1004.33 1004.45 1004.80 1005.32 1005.72 1006.28 1005.67 1005.56 1004.54 1004.01 1003.97 1003.32 1002.79 1001.90 1001.86 1002.33
1017.90 1018.02 1017.23 1016.83 1016.15 1015.34 1014.66 1013.85 1012.85 1011.76 1011.01 1010.52 1010.38 1010.06 1009.75 1009.94 1009.83 1009.68 1009.47 1009.46 1009.10 1008.49 1008.67 1008.73 1008.78 1008.49 1007.32 1006.13 1005.38 1004.89 1004.47 1004.49 1004.55 1004.65 1004.84 1004.93 1004.86 1004.09 1003.70 1003.41 1003.65 1003.09 1002.95 1003.09 1002.73
1018.67 1018.34 1018.13 1017.75 1016.95 1016.17 1015.63 1014.75 1013.61 1012.81 1011.66 1011.27 1010.99 1010.49 1010.24 1010.12 1009.57 1009.15 1009.14 1009.17 1009.21 1009.40 1009.56 1009.61 1009.55 1009.51 1008.61 1007.30 1006.07 1005.35 1004.52 1004.11 1004.06 1004.18 1004.28 1004.74 1004.45 1004.20 1004.50 1004.57 1004.77 1004.68 1003.96 1003.75 1003.63
Thickness
5749 5751 5754 5757 5759 5761 5763 5765 5768 5771 5774 5777 5781 5785 5788 5792 5799 5801 5801 5824 5825 5825 5824 5821 5817 5814 5810 5798 5803 5798 5757 5744 5758 5759 5771 5797 5791 5804 5807 5792 5794 5795 5789 5792 5786
5747 5750 5753 5756 5758 5760 5762 5765 5768 5771 5774 5778 5782 5785 5788 5792 5796 5801 5833 5835 5832 5827 5819 5812 5805 5809 5794 5796 5797 5781 5759 5767 5789 5789 5787 5800 5799 5800 5792 5783 5774 5781 5789 5789 5783
5745 5748 5752 5755 5757 5760 5762 5765 5768 5771 5774 5778 5782 5786 5789 5792 5796 5816 5842 5840 5836 5829 5825 5820 5814 5806 5791 5795 5796 5791 5775 5795 5806 5807 5810 5805 5805 5807 5790 5775 5778 5778 5779 5782 5778
5744 5747 5751 5754 5757 5760 5763 5766 5768 5771 5775 5779 5782 5786 5789 5792 5789 5836 5843 5842 5837 5831 5823 5816 5809 5797 5788 5785 5806 5788 5806 5807 5819 5815 5806 5802 5809 5801 5795 5798 5802 5796 5793 5786 5778
5744 5748 5752 5755 5758 5762 5764 5767 5770 5773 5776 5779 5782 5786 5791 5790 5803 5842 5845 5844 5836 5829 5818 5811 5802 5799 5786 5795 5804 5800 5808 5816 5822 5815 5814 5813 5805 5802 5802 5806 5804 5797 5790 5784 5780
5745 5749 5753 5756 5759 5763 5766 5769 5771 5774 5777 5780 5782 5785 5789 5783 5839 5842 5841 5838 5835 5828 5819 5814 5807 5808 5796 5795 5792 5807 5809 5811 5815 5816 5818 5806 5803 5808 5806 5809 5800 5796 5790 5787 5783
5745 5750 5754 5757 5761 5764 5768 5771 5773 5776 5779 5781 5783 5786 5787 5801 5838 5839 5840 5834 5835 5831 5818 5820 5819 5806 5801 5790 5811 5809 5800 5807 5805 5811 5809 5815 5794 5797 5814 5809 5798 5794 5791 5787 5787
5747 5751 5756 5760 5763 5767 5771 5774 5778 5780 5782 5783 5784 5786 5789 5832 5836 5836 5837 5834 5836 5832 5827 5827 5824 5808 5799 5806 5802 5795 5792 5772 5801 5807 5814 5807 5772 5804 5813 5806 5795 5793 5790 5787 5788
5747 5752 5757 5762 5765 5769 5774 5779 5782 5784 5784 5785 5784 5786 5793 5834 5827 5838 5837 5827 5828 5827 5826 5829 5820 5799 5796 5780 5769 5773 5760 5771 5784 5808 5808 5802 5788 5809 5814 5807 5796 5794 5791 5790 5787
5748 5753 5757 5762 5767 5770 5777 5782 5784 5784 5783 5785 5788 5781 5811 5820 5833 5835 5838 5832 5821 5818 5812 5809 5790 5777 5765 5759 5737 5756 5759 5771 5768 5797 5797 5791 5791 5806 5810 5808 5802 5799 5795 5793 5792
5748 5754 5758 5762 5767 5770 5777 5782 5779 5779 5784 5794 5800 5803 5816 5833 5842 5830 5833 5821 5817 5803 5781 5792 5771 5756 5765 5766 5772 5768 5764 5760 5786 5802 5791 5787 5793 5805 5806 5805 5800 5799 5800 5796 5799
5748 5754 5759 5763 5766 5768 5769 5781 5795 5798 5784 5807 5808 5808 5820 5827 5806 5822 5831 5802 5793 5775 5782 5769 5756 5779 5781 5777 5772 5767 5759 5764 5785 5806 5797 5793 5791 5809 5810 5813 5817 5809 5806 5805 5802
5749 5754 5759 5763 5766 5766 5771 5787 5804 5802 5778 5801 5806 5805 5813 5817 5802 5807 5817 5803 5787 5770 5768 5753 5775 5789 5779 5774 5766 5768 5758 5767 5772 5795 5805 5797 5779 5797 5815 5820 5822 5823 5822 5815 5809
5749 5754 5759 5763 5766 5768 5775 5794 5799 5797 5753 5784 5797 5810 5814 5813 5799 5826 5821 5805 5788 5768 5763 5762 5784 5781 5773 5767 5766 5749 5791 5784 5784 5779 5758 5793 5742 5782 5803 5812 5823 5825 5821 5820 5816
5747 5753 5756 5758 5759 5768 5789 5791 5795 5788 5733 5796 5796 5826 5813 5799 5806 5808 5823 5804 5776 5774 5768 5762 5779 5772 5766 5776 5778 5771 5799 5783 5789 5777 5770 5774 5754 5778 5804 5805 5816 5829 5830 5827 5827
5748 5752 5755 5755 5755 5778 5788 5789 5785 5741 5738 5783 5797 5790 5787 5796 5800 5804 5802 5809 5799 5776 5776 5771 5792 5788 5782 5793 5788 5799 5787 5773 5759 5752 5734 5763 5760 5772 5794 5817 5825 5836 5839 5837 5832
5752 5756 5755 5762 5772 5781 5784 5777 5731 5721 5781 5776 5781 5788 5782 5777 5783 5789 5777 5771 5760 5744 5742 5765 5778 5792 5797 5783 5792 5781 5753 5719 5726 5716 5722 5758 5753 5775 5818 5829 5837 5834 5841 5844 5843
5755 5764 5764 5768 5775 5778 5775 5745 5721 5752 5760 5786 5787 5779 5768 5774 5776 5777 5767 5754 5766 5763 5740 5742 5747 5786 5802 5790 5780 5772 5760 5722 5711 5703 5725 5747 5746 5788 5832 5845 5848 5850 5854 5852 5845
5756 5760 5760 5775 5774 5771 5752 5714 5726 5740 5766 5764 5775 5768 5764 5775 5777 5775 5760 5757 5770 5766 5747 5737 5751 5797 5808 5807 5798 5772 5754 5770 5726 5720 5715 5739 5765 5806 5833 5842 5846 5843 5844 5845 5846
5744 5753 5764 5776 5773 5762 5733 5716 5732 5752 5764 5765 5754 5770 5757 5764 5765 5760 5759 5783 5776 5781 5778 5765 5744 5785 5802 5807 5801 5789 5784 5749 5724 5722 5714 5729 5747 5758 5801 5819 5836 5833 5833 5841 5845
5745 5751 5765 5770 5769 5741 5714 5715 5739 5759 5765 5759 5755 5754 5763 5762 5762 5761 5766 5783 5788 5787 5777 5765 5752 5774 5794 5786 5781 5774 5765 5747 5739 5724 5713 5711 5741 5793 5804 5811 5825 5829 5836 5839 5845
5727 5733 5757 5759 5729 5711 5715 5731 5750 5754 5767 5763 5762 5758 5753 5757 5756 5756 5757 5774 5786 5789 5764 5770 5748 5743 5760 5789 5797 5792 5777 5760 5730 5732 5719 5720 5743 5813 5810 5816 5829 5836 5842 5843 5848
5713 5715 5748 5751 5711 5709 5721 5732 5747 5750 5751 5755 5753 5757 5765 5748 5746 5755 5759 5776 5776 5771 5759 5767 5741 5727 5748 5769 5784 5779 5775 5762 5745 5734 5721 5719 5745 5808 5812 5822 5831 5839 5842 5838 5839
5710 5711 5719 5722 5714 5714 5710 5717 5726 5751 5746 5745 5740 5748 5745 5737 5738 5737 5741 5761 5764 5761 5767 5766 5734 5739 5739 5761 5771 5765 5779 5776 5755 5728 5728 5735 5761 5786 5800 5813 5823 5831 5835 5833 5832
5699 5692 5694 5692 5703 5699 5706 5711 5715 5716 5735 5733 5726 5725 5723 5712 5717 5719 5729 5732 5750 5750 5751 5744 5729 5737 5750 5766 5774 5771 5773 5768 5763 5758 5748 5764 5755 5781 5791 5792 5801 5812 5826 5829 5827
5686 5681 5683 5682 5686 5694 5694 5699 5703 5708 5714 5711 5711 5716 5715 5705 5707 5705 5714 5716 5719 5733 5731 5729 5717 5722 5733 5748 5754 5752 5765 5768 5768 5772 5769 5768 5768 5792 5793 5801 5798 5804 5811 5815 5823
5672 5675 5674 5673 5676 5681 5679 5683 5694 5697 5706 5707 5703 5702 5698 5700 5710 5712 5712 5716 5717 5714 5710 5707 5704 5696 5699 5721 5734 5730 5749 5758 5769 5770 5771 5748 5766 5782 5780 5782 5781 5787 5799 5804 5809